Location: East Guldeford
(50.9500°N, 0.7500°E)
Time: 09:55:36
(UTC+00:00)

COSMOS 2406 - Pass Details

Date: 12 May 2021
Orbit: 845 x 862 km, 71.0° (Epoch: 16 June)

Event Time Altitude Azimuth Distance (km) Brightness Sun altitude
Rises 21:29:25 0° 326° (NW) 3,416 8.4 -13.8°
Reaches altitude 10° 21:31:59 10° 319° (NW) 2,477 7.1 -14.1°
Maximum altitude 21:37:13 40° 252° (WSW) 1,239 4.2 -14.5°
Enters shadow 21:41:44 14° 188° (S) 2,221 4.9 -14.9°
